Los Angeles, CA

10:34 AM PDT on May 21, 2018 (GMT -0700)
Los Angeles International

Weather History for KLAX - December, 2013

Change the Weather History Date:

Monday, December 2, 2013

  Actual Average Record
Temperature  
Mean Temperature 64 °F 58 °F  
Max Temperature 73 °F 66 °F 86 °F (1959)
Min Temperature 54 °F 50 °F 38 °F (1946)
Degree Days  
Heating Degree Days 1 7  
Month to date heating degree days 1 14  
Since 1 July heating degree days 101 196  
Cooling Degree Days 0 0  
Month to date cooling degree days 2 0  
Year to date cooling degree days 704 550  
Growing Degree Days 14 (Base 50)    
Moisture  
Dew Point 39 °F    
Average Humidity 53    
Maximum Humidity 84    
Minimum Humidity 22    
Precipitation  
Precipitation 0.00 in 0.04 in 1.12 in (2014)
Month to date precipitation 0.00 0.09  
Year to date precipitation 3.35 10.86  
Since 1 July precipitation 0.74  
Sea Level Pressure  
Sea Level Pressure 30.01 in    
Wind  
Wind Speed 3 mph (NNW)    
Max Wind Speed 10 mph    
Max Gust Speed 14 mph    
Visibility 10 miles    
Events      
T = Trace of Precipitation, MM = Missing Value Source: NWS Daily Summary

Daily Weather History Graph

Daily Weather History Graph

Search for Another Location

Airport or City:

Astronomy

Dec. 02, 2013 Rise Set
Actual Time 6:41 AM PST 4:44 PM PST
Civil Twilight 6:14 AM PST 5:11 PM PST
Nautical Twilight 5:43 AM PST 5:42 PM PST
Astronomical Twilight 5:13 AM PST 6:12 PM PST
Moon 6:13 AM PST (12/2) 4:50 PM PST (12/2)
Length of Visible Light 10h 57m
Length of Day
10h 02m
Waning Crescent, 0% of the Moon is Illuminated
Dec 2
Waning Crescent
Dec 2
New
Dec 9
First Quarter
Dec 17
Full
Dec 25
Last Quarter

Hourly Weather History & Observations

Time (PST) Temp. Dew Point Humidity Pressure Visibility Wind Dir Wind Speed Gust Speed Precip Events Conditions
12:53 AM 60.1 °F 35.1 °F 39% 30.10 in 10.0 mi ESE 4.6 mph - N/A   Clear
1:53 AM 61.0 °F 32.0 °F 34% 30.09 in 10.0 mi ENE 5.8 mph - N/A   Scattered Clouds
2:53 AM 61.0 °F 30.9 °F 32% 30.06 in 10.0 mi ENE 3.5 mph - N/A   Scattered Clouds
3:53 AM 57.0 °F 32.0 °F 39% 30.05 in 10.0 mi Calm Calm - N/A   Partly Cloudy
4:53 AM 55.0 °F 34.0 °F 45% 30.06 in 10.0 mi ENE 3.5 mph - N/A   Partly Cloudy
5:53 AM 54.0 °F 35.1 °F 49% 30.08 in 10.0 mi Calm Calm - N/A   Scattered Clouds
6:53 AM 57.0 °F 33.1 °F 40% 30.09 in 10.0 mi NE 3.5 mph - N/A   Mostly Cloudy
7:53 AM 57.9 °F 35.1 °F 42% 30.09 in 10.0 mi Calm Calm - N/A   Mostly Cloudy
8:53 AM 61.0 °F 35.1 °F 38% 30.09 in 10.0 mi Calm Calm - N/A   Mostly Cloudy
9:53 AM 66.0 °F 34.0 °F 30% 30.07 in 10.0 mi NE 3.5 mph - N/A   Mostly Cloudy
10:53 AM 69.1 °F 33.1 °F 26% 30.05 in 10.0 mi Calm Calm - N/A   Mostly Cloudy
11:53 AM 72.0 °F 30.0 °F 21% 30.04 in 10.0 mi SSW 3.5 mph - N/A   Mostly Cloudy
12:53 PM 70.0 °F 45.0 °F 41% 30.01 in 10.0 mi West 8.1 mph - N/A   Mostly Cloudy
1:53 PM 69.1 °F 37.9 °F 32% 29.99 in 10.0 mi West 8.1 mph - N/A   Mostly Cloudy
2:53 PM 69.1 °F 34.0 °F 27% 29.95 in 10.0 mi West 5.8 mph - N/A   Mostly Cloudy
3:53 PM 66.9 °F 34.0 °F 30% 29.96 in 10.0 mi WSW 4.6 mph - N/A   Mostly Cloudy
4:53 PM 64.9 °F 42.1 °F 43% 29.95 in 10.0 mi NW 3.5 mph - N/A   Mostly Cloudy
5:53 PM 63.0 °F 46.0 °F 54% 29.94 in 10.0 mi WSW 5.8 mph - N/A   Mostly Cloudy
6:53 PM 61.0 °F 50.0 °F 67% 29.95 in 10.0 mi WNW 3.5 mph - N/A   Scattered Clouds
7:53 PM 61.0 °F 54.0 °F 78% 29.94 in 10.0 mi Calm Calm - N/A   Mostly Cloudy
8:53 PM 60.1 °F 55.0 °F 83% 29.93 in 10.0 mi NE 3.5 mph - N/A   Scattered Clouds
9:53 PM 60.1 °F 51.1 °F 72% 29.93 in 10.0 mi Calm Calm - N/A   Scattered Clouds
10:53 PM 57.9 °F 50.0 °F 75% 29.92 in 10.0 mi Calm Calm - N/A   Scattered Clouds
11:53 PM 57.9 °F 45.0 °F 62% 29.91 in 10.0 mi Variable 3.5 mph - N/A   Partly Cloudy